Location: São Paulo
(23.5507°S, 46.6334°W)
Time: 10:56:12
(UTC-03:00)

Transit 4A - Pass Details

Date: 23 February 2026
Orbit: 864 x 977 km, 66.8° (Epoch: 11 March)

Event Time Altitude Azimuth Distance (km) Brightness Sun altitude
Rises 14:24:22 0° 318° (NW) 3,660 11.4 57.2°
Reaches altitude 10° 14:27:07 10° 310° (NW) 2,713 11.0 56.6°
Maximum altitude 14:32:56 37° 243° (WSW) 1,449 10.0 55.3°
Drops below altitude 10° 14:38:43 10° 177° (S) 2,686 10.3 54.1°
Sets 14:41:28 0° 168° (SSE) 3,619 10.8 53.5°
